TimeEST,TemperatureF,Dew PointF,Humidity,Sea Level PressureIn,VisibilityMPH,Wind Direction,Wind SpeedMPH,Gust SpeedMPH,PrecipitationIn,Events,Conditions,WindDirDegrees,DateUTC
12:53 AM,42.1,28.0,58,30.20,10.0,North,3.5,-,N/A,,Clear,350,2013-01-07 05:53:00
1:53 AM,42.1,30.0,62,30.20,10.0,North,5.8,-,N/A,,Clear,350,2013-01-07 06:53:00
2:53 AM,42.1,28.9,60,30.20,10.0,Calm,Calm,-,N/A,,Clear,0,2013-01-07 07:53:00
3:53 AM,37.0,28.9,73,30.23,10.0,NW,3.5,-,N/A,,Clear,310,2013-01-07 08:53:00
4:53 AM,34.0,28.0,79,30.25,10.0,NW,4.6,-,N/A,,Clear,310,2013-01-07 09:53:00
5:53 AM,35.1,26.1,70,30.27,10.0,Calm,Calm,-,N/A,,Clear,0,2013-01-07 10:53:00
6:53 AM,36.0,26.1,67,30.30,10.0,NNW,3.5,-,N/A,,Clear,340,2013-01-07 11:53:00
7:53 AM,36.0,26.1,67,30.32,10.0,NNE,3.5,-,N/A,,Clear,20,2013-01-07 12:53:00
8:53 AM,39.0,27.0,62,30.36,10.0,North,4.6,-,N/A,,Clear,10,2013-01-07 13:53:00
9:53 AM,43.0,28.9,58,30.38,10.0,NE,5.8,-,N/A,,Clear,40,2013-01-07 14:53:00
10:53 AM,46.9,27.0,46,30.40,10.0,ENE,6.9,-,N/A,,Clear,70,2013-01-07 15:53:00
11:53 AM,48.9,28.0,44,30.39,10.0,ENE,4.6,-,N/A,,Clear,70,2013-01-07 16:53:00
12:53 PM,51.1,27.0,39,30.35,10.0,Variable,4.6,-,N/A,,Clear,0,2013-01-07 17:53:00
1:53 PM,53.6,26.6,35,30.33,10.0,East,8.1,-,N/A,,Clear,80,2013-01-07 18:53:00
2:53 PM,53.1,25.0,34,30.33,10.0,ENE,8.1,-,N/A,,Clear,60,2013-01-07 19:53:00
3:53 PM,53.1,25.0,34,30.35,10.0,East,6.9,-,N/A,,Clear,90,2013-01-07 20:53:00
4:53 PM,50.0,26.1,39,30.36,10.0,ENE,4.6,-,N/A,,Clear,70,2013-01-07 21:53:00
5:53 PM,46.0,28.0,50,30.36,10.0,ENE,3.5,-,N/A,,Clear,70,2013-01-07 22:53:00
6:53 PM,44.1,28.0,53,30.38,10.0,East,4.6,-,N/A,,Clear,100,2013-01-07 23:53:00
7:53 PM,41.0,28.0,60,30.38,10.0,Calm,Calm,-,N/A,,Clear,0,2013-01-08 00:53:00
8:53 PM,42.1,28.0,58,30.38,10.0,ESE,5.8,-,N/A,,Clear,110,2013-01-08 01:53:00
9:53 PM,36.0,28.9,76,30.40,10.0,Calm,Calm,-,N/A,,Clear,0,2013-01-08 02:53:00
10:53 PM,37.9,28.0,68,30.39,10.0,Calm,Calm,-,N/A,,Clear,0,2013-01-08 03:53:00
11:53 PM,35.1,28.0,76,30.38,10.0,NNE,3.5,-,N/A,,Clear,20,2013-01-08 04:53:00